Regional Weather Roundup
Issued by NWS State College, PA

Home | Current Version | Previous Version | Text Only | Print | Product List | Glossary On
Versions: 1 2 3 4 5 6 7 8 9 10 11 12 13 14 15 16 17 18 19 20 21 22 23 24 25 26 27 28 29 30 31 32 33 34 35 36 37 38 39 40 41 42 43 44 45 46 47 48 49 50
000
ASUS41 KCTP 241610
RWRCTP

REGIONAL WEATHER ROUNDUP
NATIONAL WEATHER SERVICE STATE COLLEGE PA
1200 PM EDT WED MAY 24 2017

Note: "fair" indicates few or no clouds below 12,000 feet with no
significant weather and/or obstructions to visibility.

* = STATION THAT DOES NOT REPORT PRECIPITATION /E.G. RAIN...SNOW...ETC/
    THUNDER OR FOG.

PAZ002>004-007>009-013>016-020>023-029>032-241700-
WESTERN PENNSYLVANIA

CITY           SKY/WX    TMP DP  RH WIND       PRES   REMARKS
ERIE           CLOUDY    68  52  56 E9        29.63S
MEADVILLE      CLOUDY    66  54  65 VRB7      29.63F
FRANKLIN*      FAIR      64  50  59 SE16      29.65F
NEW CASTLE     PTSUNNY   66  54  65 SE6G20    29.63F
BEAVER COUNTY  CLOUDY    64  55  72 SE12G17   29.62
BUTLER*        FAIR      64  54  68 SE8       29.63F
PITTSBURGH INT LGT RAIN  65  54  67 S14       29.61F
PITTSBURGH     CLOUDY    64  51  62 S10G17    29.63F
INDIANA*       MOSUNNY   66  52  59 SE14G22   29.69F
LATROBE        CLOUDY    63  54  72 S12G17    29.67S
WASHINGTON CO* CLOUDY    57  55  94 E7        29.65S
$$

PAZ004>006-010>012-017>019-024>028-033>037-041-042-045-046-049>053-241700-
CENTRAL PENNSYLVANIA

CITY           SKY/WX    TMP DP  RH WIND       PRES   REMARKS
BRADFORD       PTSUNNY   64  50  60 S9G20     29.71F
DUBOIS         FAIR      66  46  48 SE14G22   29.68F
CLEARFIELD     FAIR      69  46  43 E17G25    29.70F
JOHNSTOWN      CLOUDY    59  50  72 SE15G22   29.70R
ALTOONA        CLOUDY    64  50  60 SE7       29.71F
STATE COLLEGE  MOSUNNY   68  46  45 SE9G20    29.71F
WILLIAMSPORT   FAIR      71  51  49 E7        29.71S
SELINSGROVE    FAIR      70  51  51 MISG      29.73S
FT INDIANTOWN  PTSUNNY   68  52  55 E3        29.73F
CAPITAL CITY   FAIR      68  53  58 VRB7      29.72F
HARRISBURG     PTSUNNY   68  55  63 SE6       29.72F
YORK           CLOUDY    66  55  67 VRB5      29.73F
$$

PAZ038>040-043-044-047-048-054-055-060>062-067>071-241700-
EASTERN PENNSYLVANIA

CITY           SKY/WX    TMP DP  RH WIND       PRES   REMARKS
SCRANTON       FAIR      71  47  42 VRB7      29.74S
MOUNT POCONO   CLOUDY    63  47  55 SE12G18   29.78R
ALLENTOWN      FAIR      69  52  54 SE8       29.76R
QUAKERTOWN*    FAIR      66  54  63 NE6       29.77R
READING        FAIR      69  50  50 E9G17     29.73S
LANCASTER      PTSUNNY   68  57  68 E7        29.74F
COATESVILLE    FAIR      66  52  59 E10G23    29.76S
POTTSTOWN      FAIR      66  51  58 E8        29.76S
BLUE BELL      FAIR      64  54  68 E7        29.77S
DOYLESTOWN     CLOUDY    64  55  72 CALM      29.76R
WILLOW GROVE   NOT AVBL
NORTH PHILA    CLOUDY    66  54  65 E9        29.77R
PHILADELPHIA   PTSUNNY   66  54  65 E13       29.75S
$$



USA.gov is the U.S. government's official web portal to all federal, state and local government web resources and services.